Carolina, PR

7:23 AM AST on February 21, 2017 (GMT -0400)
Luis Munoz Marin International

Weather History for TJSJ - March, 2014

Change the Weather History Date:

Monday, March 3, 2014

  Actual Average Record
Temperature  
Mean Temperature 79 °F 78 °F  
Max Temperature 83 °F 84 °F 92 °F (1981)
Min Temperature 74 °F 73 °F 60 °F (1957)
Degree Days  
Heating Degree Days 0 0  
Month to date heating degree days 0 0  
Since 1 July heating degree days 0 0  
Cooling Degree Days 14 13  
Month to date cooling degree days 42 39  
Year to date cooling degree days 930 790  
Growing Degree Days 28 (Base 50)    
Moisture  
Dew Point 67 °F    
Average Humidity 76    
Maximum Humidity 93    
Minimum Humidity 58    
Precipitation  
Precipitation T in 0.07 in 2.41 in (1933)
Month to date precipitation T 0.20  
Year to date precipitation 6.04 6.35  
Sea Level Pressure  
Sea Level Pressure 30.00 in    
Wind  
Wind Speed 9 mph (ENE)    
Max Wind Speed 17 mph    
Max Gust Speed 22 mph    
Visibility 10 miles    
Events Rain    
T = Trace of Precipitation, MM = Missing Value Source: NWS Daily Summary

Daily Weather History Graph

Daily Weather History Graph

Search for Another Location

Airport or City:

Trip Planner

Search our weather history database for the weather conditions in past years. The results will help you decide how hot, cold, wet, or windy it might be!

Date:

Astronomy

Mar. 03, 2014 Rise Set
Actual Time 6:41 AM AST 6:30 PM AST
Civil Twilight 6:19 AM AST 6:52 PM AST
Nautical Twilight 5:54 AM AST 7:17 PM AST
Astronomical Twilight 5:28 AM AST 7:43 PM AST
Moon 8:13 AM AST (3/3) 8:58 PM AST (3/3)
Length of Visible Light 12h 32m
Length of Day
11h 49m
Waxing Crescent, 7% of the Moon is Illuminated
Mar 3
Waxing Crescent
Mar 8
First Quarter
Mar 16
Full
Mar 23
Last Quarter
Mar 30
New

Hourly Weather History & Observations

Time (AST) Temp. Heat Index Dew Point Humidity Pressure Visibility Wind Dir Wind Speed Gust Speed Precip Events Conditions
12:56 AM 75.9 °F - 69.1 °F 79% 29.99 in 10.0 mi Calm Calm - N/A   Scattered Clouds
1:56 AM 77.0 °F - 69.1 °F 76% 29.96 in 10.0 mi ESE 3.5 mph - N/A   Scattered Clouds
2:56 AM 75.0 °F - 69.1 °F 82% 29.95 in 10.0 mi Calm Calm - N/A   Scattered Clouds
3:56 AM 75.9 °F - 70.0 °F 82% 29.95 in 10.0 mi Calm Calm - 0.00 in   Scattered Clouds
4:56 AM 73.9 °F - 71.1 °F 91% 29.95 in 10.0 mi SSE 3.5 mph - N/A   Scattered Clouds
5:56 AM 75.9 °F - 69.1 °F 79% 29.96 in 10.0 mi NE 9.2 mph - 0.00 in Rain Light Rain
6:56 AM 75.9 °F - 66.9 °F 74% 29.98 in 10.0 mi ENE 10.4 mph - 0.00 in   Mostly Cloudy
7:56 AM 77.0 °F - 66.9 °F 71% 30.00 in 10.0 mi ENE 11.5 mph - N/A   Mostly Cloudy
8:56 AM 80.1 °F 82.3 °F 66.9 °F 64% 30.03 in 10.0 mi ENE 13.8 mph - N/A   Mostly Cloudy
9:56 AM 81.0 °F 83.3 °F 66.9 °F 62% 30.04 in 10.0 mi ENE 15.0 mph 19.6 mph N/A   Mostly Cloudy
10:56 AM 82.0 °F 84.1 °F 66.0 °F 58% 30.05 in 10.0 mi NE 11.5 mph 20.7 mph N/A   Scattered Clouds
11:56 AM 82.0 °F 84.1 °F 66.0 °F 58% 30.04 in 10.0 mi NE 15.0 mph - N/A   Scattered Clouds
12:56 PM 82.0 °F 84.1 °F 66.0 °F 58% 30.01 in 10.0 mi NNE 15.0 mph - N/A   Scattered Clouds
1:56 PM 82.9 °F 85.4 °F 66.9 °F 58% 29.99 in 10.0 mi ENE 13.8 mph - N/A   Scattered Clouds
2:56 PM 82.0 °F 84.1 °F 66.0 °F 58% 29.97 in 10.0 mi NNE 13.8 mph - N/A   Scattered Clouds
3:56 PM 82.0 °F 84.1 °F 66.0 °F 58% 29.97 in 10.0 mi NNE 12.7 mph 20.7 mph N/A   Scattered Clouds
4:56 PM 80.1 °F 82.1 °F 66.0 °F 62% 29.97 in 10.0 mi NE 12.7 mph - N/A   Scattered Clouds
5:56 PM 79.0 °F - 66.9 °F 66% 29.98 in 10.0 mi ENE 11.5 mph - N/A   Scattered Clouds
6:56 PM 78.1 °F - 66.9 °F 68% 29.99 in 10.0 mi ENE 10.4 mph - N/A   Scattered Clouds
7:56 PM 77.0 °F - 66.9 °F 71% 30.01 in 10.0 mi ENE 10.4 mph - N/A   Scattered Clouds
8:56 PM 77.0 °F - 66.9 °F 71% 30.03 in 10.0 mi ENE 8.1 mph - N/A   Scattered Clouds
9:56 PM 77.0 °F - 66.9 °F 71% 30.05 in 10.0 mi ESE 4.6 mph - N/A   Scattered Clouds
10:56 PM 77.0 °F - 66.9 °F 71% 30.04 in 10.0 mi Calm Calm - N/A   Scattered Clouds
11:56 PM 75.9 °F - 66.9 °F 74% 30.05 in 10.0 mi Calm Calm - N/A   Partly Cloudy